User: anonymous   Login
Location: Val-d'Or
(48.1170°N, 77.7670°W)
Time: 16:46:28
(UTC-04:00)
Language:

ISS - Orbit

View from above orbital plane
View from above orbital plane
View from above satellite
View from above satellite

Ground track
Ground track

The orbit data is extracted from the following two-line orbital elements,

1 25544U 98067A   19198.51445802  .00016717  00000-0  10270-3 0  9026
2 25544  51.6394 210.8144 0006877 151.4326 208.7203 15.50961286 19959
Epoch (UTC): 17 July 2019 12:20:49
Eccentricity: 0.0006877
inclination: 51.6394°
perigee height: 409 km
apogee height: 418 km
right ascension of ascending node: 210.8144°
argument of perigee: 151.4326°
revolutions per day: 15.50961286
mean anomaly at epoch: 208.7203°
orbit number at epoch: 1995

The dashed part of the orbit path shows where the satellite is in the earth's shadow,  

DLR